When you browse on this site, cookies collect data to enhance your experience and personalize the content and advertising you see.
Visit our Privacy Policy to learn more. By continuing to use the site, you agree to this use of cookies and data.
  • In Sweden
  • List of Countries
  • For 7 days
  • Water Temperature
  • Weather Map
  • Weather Widgets
  • user-avatar
    Login

    Hourly Weather Aguilar

    Today, 15 November, Friday

    Time Temperature Precipitation Wind Pressure Humidity
    00:00 -2°C° 0 mm 3 mps 637 mmHg 93%
    01:00 -3°C° 0.7 mm 4 mps 637 mmHg 94%
    02:00 -3°C° 0.7 mm 4 mps 637 mmHg 95%
    03:00 -4°C° 0.7 mm 5 mps 637 mmHg 96%
    04:00 -5°C° 0.2 mm 5 mps 638 mmHg 94%
    05:00 -5°C° 0.2 mm 5 mps 638 mmHg 92%
    06:00 -5°C° 0 mm 5 mps 638 mmHg 89%
    07:00 -4°C° 0 mm 5 mps 639 mmHg 87%
    08:00 -4°C° 0 mm 5 mps 639 mmHg 84%
    09:00 -4°C° 0 mm 5 mps 639 mmHg 82%
    10:00 -3°C° 0 mm 6 mps 639 mmHg 80%
    11:00 -2°C° 0 mm 6 mps 639 mmHg 78%
    12:00 -1°C° 0 mm 6 mps 639 mmHg 77%
    13:00 -1°C° 0 mm 7 mps 639 mmHg 75%
    14:00 -1°C° 0 mm 8 mps 639 mmHg 73%
    15:00 -1°C° 0 mm 8 mps 639 mmHg 71%
    16:00 -1°C° 0 mm 7 mps 639 mmHg 77%
    17:00 -2°C° 0 mm 6 mps 639 mmHg 83%
    18:00 -2°C° 0 mm 4 mps 639 mmHg 89%
    19:00 -3°C° 0 mm 4 mps 639 mmHg 89%
    20:00 -2°C° 0 mm 3 mps 640 mmHg 90%
    21:00 -3°C° 0 mm 2 mps 640 mmHg 91%
    22:00 -3°C° 0 mm 2 mps 640 mmHg 91%
    23:00 -4°C° 0 mm 3 mps 641 mmHg 91%

    Tomorrow, 16 November, Saturday

    Time Temperature Precipitation Wind Pressure Humidity
    00:00 -2°C° 0 mm 3 mps 641 mmHg 90%
    01:00 -4°C° 0 mm 3 mps 641 mmHg 91%
    02:00 -4°C° 0 mm 2 mps 641 mmHg 91%
    03:00 -4°C° 0 mm 2 mps 641 mmHg 92%
    04:00 -4°C° 0 mm 2 mps 641 mmHg 93%
    05:00 -5°C° 0 mm 2 mps 642 mmHg 93%
    06:00 -5°C° 0 mm 2 mps 642 mmHg 94%
    07:00 -5°C° 0 mm 3 mps 643 mmHg 86%
    08:00 -4°C° 0 mm 3 mps 644 mmHg 78%
    09:00 -3°C° 0 mm 4 mps 645 mmHg 70%
    10:00 -2°C° 0 mm 4 mps 645 mmHg 66%
    11:00 -1°C° 0 mm 4 mps 645 mmHg 62%
    12:00 0°C° 0 mm 4 mps 646 mmHg 58%
    13:00 0°C° 0 mm 5 mps 645 mmHg 61%
    14:00 -1°C° 0 mm 6 mps 645 mmHg 65%
    15:00 -1°C° 0 mm 6 mps 645 mmHg 68%
    16:00 -2°C° 0 mm 6 mps 645 mmHg 73%
    17:00 -3°C° 0 mm 6 mps 645 mmHg 77%
    18:00 -4°C° 0 mm 6 mps 645 mmHg 81%
    19:00 -4°C° 0 mm 6 mps 645 mmHg 82%
    20:00 -4°C° 0 mm 6 mps 645 mmHg 82%
    21:00 -4°C° 0 mm 6 mps 645 mmHg 83%
    22:00 -5°C° 0 mm 6 mps 645 mmHg 83%
    23:00 -5°C° 0 mm 5 mps 645 mmHg 83%

    Day after tomorrow, 17 November, Sunday

    Time Temperature Precipitation Wind Pressure Humidity
    00:00 -5°C° 0 mm 5 mps 644 mmHg 83%
    01:00 -5°C° 0 mm 5 mps 644 mmHg 84%
    02:00 -6°C° 0 mm 5 mps 644 mmHg 85%
    03:00 -6°C° 0 mm 6 mps 644 mmHg 86%
    04:00 -6°C° 0 mm 5 mps 644 mmHg 86%
    05:00 -6°C° 0 mm 5 mps 643 mmHg 87%
    06:00 -6°C° 0 mm 5 mps 643 mmHg 87%
    07:00 -5°C° 0 mm 6 mps 644 mmHg 81%
    08:00 -4°C° 0 mm 7 mps 644 mmHg 75%
    09:00 -4°C° 0 mm 8 mps 645 mmHg 68%
    10:00 -1°C° 0 mm 8 mps 645 mmHg 65%
    11:00 0°C° 0 mm 8 mps 645 mmHg 62%
    12:00 +1°C° 0 mm 8 mps 645 mmHg 58%
    13:00 +1°C° 0 mm 8 mps 645 mmHg 64%
    14:00 +2°C° 0 mm 7 mps 644 mmHg 69%
    15:00 +2°C° 0 mm 7 mps 644 mmHg 75%
    16:00 +1°C° 0.2 mm 6 mps 644 mmHg 82%
    17:00 +1°C° 0.2 mm 5 mps 644 mmHg 88%
    18:00 0°C° 0.2 mm 4 mps 643 mmHg 95%
    19:00 0°C° 0.1 mm 4 mps 644 mmHg 95%
    20:00 +1°C° 0.1 mm 3 mps 644 mmHg 95%
    21:00 +1°C° 0.1 mm 2 mps 644 mmHg 96%
    22:00 0°C° 0.1 mm 3 mps 644 mmHg 95%
    23:00 0°C° 0.1 mm 3 mps 643 mmHg 95%

    18 November, Monday

    Time Temperature Precipitation Wind Pressure Humidity
    00:00 0°C° 0.1 mm 3 mps 643 mmHg 95%
    01:00 -1°C° 0.1 mm 4 mps 643 mmHg 95%
    02:00 -1°C° 0.1 mm 4 mps 643 mmHg 95%
    03:00 -1°C° 0.1 mm 4 mps 643 mmHg 96%
    04:00 -2°C° 0.1 mm 4 mps 643 mmHg 95%
    05:00 -2°C° 0.1 mm 4 mps 643 mmHg 94%
    06:00 -2°C° 0.1 mm 4 mps 643 mmHg 93%
    07:00 -1°C° 0.1 mm 4 mps 644 mmHg 92%
    08:00 -1°C° 0.1 mm 4 mps 644 mmHg 91%
    09:00 -1°C° 0.1 mm 5 mps 645 mmHg 91%
    10:00 -1°C° 0.1 mm 5 mps 645 mmHg 90%
    11:00 -1°C° 0.1 mm 5 mps 645 mmHg 90%
    12:00 0°C° 0.1 mm 5 mps 645 mmHg 90%
    13:00 0°C° 0 mm 5 mps 645 mmHg 87%
    14:00 0°C° 0 mm 5 mps 645 mmHg 83%
    15:00 0°C° 0 mm 5 mps 645 mmHg 80%
    16:00 0°C° 0 mm 5 mps 646 mmHg 82%
    17:00 -1°C° 0 mm 4 mps 646 mmHg 84%
    18:00 0°C° 0 mm 3 mps 646 mmHg 86%
    19:00 -1°C° 0 mm 3 mps 646 mmHg 87%
    20:00 -2°C° 0 mm 2 mps 646 mmHg 89%
    21:00 -3°C° 0 mm 2 mps 647 mmHg 91%
    22:00 -3°C° 0 mm 2 mps 647 mmHg 90%
    23:00 -3°C° 0 mm 2 mps 647 mmHg 90%

    19 November, Tuesday

    Time Temperature Precipitation Wind Pressure Humidity
    00:00 -1°C° 0 mm 1 mps 647 mmHg 90%
    01:00 -3°C° 0 mm 2 mps 647 mmHg 89%
    02:00 -3°C° 0 mm 2 mps 647 mmHg 88%
    03:00 -4°C° 0 mm 2 mps 646 mmHg 87%
    04:00 -3°C° 0 mm 2 mps 646 mmHg 85%
    05:00 -3°C° 0 mm 2 mps 646 mmHg 83%
    06:00 -3°C° 0 mm 2 mps 647 mmHg 81%
    07:00 -2°C° 0 mm 3 mps 647 mmHg 78%
    08:00 -1°C° 0 mm 4 mps 647 mmHg 75%
    09:00 0°C° 0 mm 4 mps 648 mmHg 71%
    10:00 +1°C° 0 mm 4 mps 648 mmHg 68%
    11:00 +2°C° 0 mm 5 mps 648 mmHg 65%
    12:00 +3°C° 0 mm 5 mps 647 mmHg 62%
    13:00 +3°C° 0 mm 5 mps 647 mmHg 62%
    14:00 +4°C° 0 mm 4 mps 647 mmHg 62%
    15:00 +4°C° 0 mm 4 mps 646 mmHg 62%
    16:00 +3°C° 0 mm 3 mps 646 mmHg 68%
    17:00 +1°C° 0 mm 3 mps 646 mmHg 74%
    18:00 0°C° 0 mm 3 mps 645 mmHg 80%
    19:00 0°C° 0 mm 3 mps 645 mmHg 82%
    20:00 +1°C° 0 mm 2 mps 645 mmHg 85%
    21:00 +1°C° 0 mm 2 mps 645 mmHg 87%
    22:00 +1°C° 0.2 mm 2 mps 645 mmHg 89%
    23:00 +1°C° 0.2 mm 2 mps 645 mmHg 90%

    20 November, Wednesday

    Time Temperature Precipitation Wind Pressure Humidity
    00:00 +2°C° 0.2 mm 2 mps 645 mmHg 92%
    01:00 +2°C° 0 mm 2 mps 645 mmHg 93%
    02:00 +2°C° 0 mm 2 mps 645 mmHg 93%
    03:00 +2°C° 0 mm 2 mps 644 mmHg 94%
    04:00 +2°C° 0 mm 2 mps 644 mmHg 93%
    05:00 +2°C° 0 mm 2 mps 644 mmHg 93%
    06:00 +2°C° 0 mm 2 mps 643 mmHg 93%
    07:00 +2°C° 0 mm 2 mps 644 mmHg 91%
    08:00 +2°C° 0 mm 3 mps 644 mmHg 90%
    09:00 +2°C° 0 mm 3 mps 644 mmHg 89%
    10:00 +2°C° 0.2 mm 3 mps 644 mmHg 89%
    11:00 +2°C° 0.2 mm 3 mps 643 mmHg 90%
    12:00 +2°C° 0.2 mm 3 mps 643 mmHg 90%
    13:00 +2°C° 0.1 mm 3 mps 643 mmHg 91%
    14:00 +2°C° 0.1 mm 3 mps 642 mmHg 91%
    15:00 +1°C° 0.1 mm 4 mps 642 mmHg 91%
    16:00 +1°C° 0 mm 4 mps 642 mmHg 91%
    17:00 +1°C° 0 mm 4 mps 642 mmHg 92%
    18:00 +1°C° 0 mm 4 mps 642 mmHg 92%
    19:00 +1°C° 0 mm 5 mps 642 mmHg 91%
    20:00 -1°C° 0 mm 6 mps 642 mmHg 91%
    21:00 -1°C° 0 mm 6 mps 642 mmHg 91%
    22:00 +1°C° 0 mm 6 mps 642 mmHg 91%
    23:00 0°C° 0 mm 7 mps 642 mmHg 90%
    Show more